Regional Weather Roundup
Issued by NWS

Home | Current Version | Previous Version | Text Only | Print | Product List | Glossary On
Versions: 1 2 3 4 5 6 7 8 9 10 11 12 13 14 15 16 17 18 19 20 21 22 23 24 25 26 27 28 29 30 31 32 33 34 35 36 37 38 39 40 41 42 43 44 45 46 47 48 49 50
000
ASUS43 KLSX 172210
RWRMO

WEATHER SUMMARY FOR MISSOURI
NATIONAL WEATHER SERVICE SPRINGFIELD MO
500 PM CDT WED APR 17 2024

NOTE: "FAIR" INDICATES FEW OR NO CLOUDS BELOW 12,000 FEET WITH NO
       SIGNIFICANT WEATHER AND/OR OBSTRUCTIONS TO VISIBILITY.
       CURRENT SKY AND/OR WEATHER CONDITIONS ARE NOT AVAILABLE FOR
       CHILLICOTHE AND FARMINGTON.

MOZ001>031-035>038-043-044-053-054-172300-
...NORTHERN AND WESTERN MISSOURI...

CITY           SKY/WX    TMP DP  RH WIND       PRES   REMARKS
KANSAS CTY INT MOSUNNY   77  44  30 W5        29.90S
KANSAS C DTWN  SUNNY     79  42  26 NW7       29.89S
LEE`S SUMMIT   SUNNY     79  41  25 SW6       29.90F
ST JOSEPH      MOSUNNY   75  41  29 W7        29.91S
CHILLICOTHE      N/A     73  46  38 W7        29.91F
KIRKSVILLE     SUNNY     69  46  43 W13G18    29.93R

$$
MOZ066>068-077>081-088>096-101>105-172300-
...SOUTHWEST MISSOURI...

CITY           SKY/WX    TMP DP  RH WIND       PRES   REMARKS
SPRINGFIELD    SUNNY     81  51  35 SW8       29.93S
JOPLIN         SUNNY     81  49  32 VRB6      29.91F
BRANSON        SUNNY     82  46  28 SW6       29.95F

$$
MOZ032>034-039>042-045>050-055>058-069>072-172300-
...CENTRAL MISSOURI...

CITY           SKY/WX    TMP DP  RH WIND       PRES   REMARKS
COLUMBIA       SUNNY     79  43  27 NW16G22   29.91R
JEFFERSON CITY SUNNY     82  43  25 W8        29.90S
ROLLA          SUNNY     80  44  27 NW10      29.92S
SEDALIA        SUNNY     81  38  21 VRB7G20   29.91S
WARRENSBURG    SUNNY     79  39  24 SW5       29.90S
OSAGE BEACH    SUNNY     82  38  20 VRB7      29.92R

$$
MOZ051-052-059>065-172300-
...EAST CENTRAL MISSOURI...

CITY           SKY/WX    TMP DP  RH WIND       PRES   REMARKS
ST LOUIS INTL  MOSUNNY   81  47  30 NW14G24   29.89R
SPIRIT OF STL  SUNNY     80  48  32 NW16G22   29.88R
ST CHARLES     SUNNY     79  45  29 W20G25    29.88R

$$
MOZ072>076-082>087-097>100-106>115-172300-
...SOUTH CENTRAL AND SOUTHEAST MISSOURI...

CITY           SKY/WX    TMP DP  RH WIND       PRES   REMARKS
CAPE GIRARDEAU SUNNY     83  61  47 SW13      29.88R
FARMINGTON     SUNNY     83  38  20 NW13G22   29.91R
POPLAR BLUFF   SUNNY     85  52  32 SW13      29.88S
WEST PLAINS    SUNNY     85  41  21 W7        29.94S

$$



USA.gov is the U.S. government's official web portal to all federal, state and local government web resources and services.